GPS 2-05 Rocket1 - Orbit

View from above orbital plane
View from above orbital plane
View from above satellite
View from above satellite

Ground track
Ground track

The orbit data is extracted from the following two-line orbital elements,

1 20362U 89097B   13169.14818008  .00003650  00000-0  16088-3 0  1910
2 20362 035.6244 136.2996 0129701 160.3073 270.3008 15.14173883275550
Epoch (UTC): 18 June 2013 03:33:22
Eccentricity: 0.0129701
inclination: 35.6244°
perigee height: 434 km
apogee height: 613 km
right ascension of ascending node: 136.2996°
argument of perigee: 160.3073°
revolutions per day: 15.14173883
mean anomaly at epoch: 270.3008°
orbit number at epoch: 27555

The dashed part of the orbit path shows where the satellite is in the earth's shadow,  

Developed and maintained by Chris Peat, Heavens-Above GmbH. Please read the updated FAQ before sending e-mail. Imprint. DLR